AirNav   Pilot Hours Calculator
 
 694 users online  

XA99 Flat Bush Airport
Decatur, Texas, USA

GOING TO DECATUR?


FAA INFORMATION EFFECTIVE 02 DECEMBER 2021

Location

FAA Identifier: XA99
Lat/Long: 33-08-03.7800N 097-36-25.3800W
33-08.063000N 097-36.423000W
33.1343833,-97.6070500
(estimated)
Elevation: 862 ft. / 263 m (estimated)
From city: 7 miles S of DECATUR, TX
Time zone: UTC -6 (UTC -5 during Daylight Saving Time)
Zip code: 76023

Airport Operations

Airport use: Private use. Permission required prior to landing
Activation date: 05/2006
Control tower: no
ARTCC: FORT WORTH CENTER
FSS: FORT WORTH FLIGHT SERVICE STATION
Attendance: UNATNDD
Segmented circle: no

Airport Communications

WX AWOS-3 at LUD (7 nm N): 118.225 (940-627-2365)
WX AWOS-3 at XBP (11 nm W): 119.225 (940-683-8027)
WX ASOS at AFW (17 nm SE): PHONE 817-491-6188

Nearby radio navigation aids

VOR radial/distance  VOR name  Freq  Var
FUZr298/26.1RANGER VORTAC115.7006E
UKWr150/26.4BOWIE VORTAC117.1506E
MQPr030/31.4MILLSAP VORTAC117.7009E
TTTr293/32.6MAVERICK VOR/DME113.1006E
CVEr286/38.3COWBOY VOR/DME116.2006E

Airport Services

Runway Information

Runway 17/35

Dimensions: 2300 x 100 ft. / 701 x 30 m
Surface: turf
RUNWAY 17  RUNWAY 35
Traffic pattern: leftleft

Airport Ownership and Management from official FAA records

Ownership: Privately-owned
Owner: BRIAN TURNER
1111 CR 4380
DECATUR, TX 76234
Phone 817-614-0805
Manager: BRIAN TURNER
1111 CR 4380
DECATUR, TX 76234
Phone 817-614-0805

Additional Remarks

FOR CD CTC REGIONAL APCH AT 972-615-2799.

Instrument Procedures

There are no published instrument procedures at XA99.

Some nearby airports with instrument procedures:

KLUD - Decatur Municipal Airport (7 nm N)
4T2 - Kenneth Copeland Airport (11 nm SE)
KXBP - Bridgeport Municipal Airport (11 nm W)
KAFW - Fort Worth Alliance Airport (17 nm SE)
KDTO - Denton Enterprise Airport (21 nm E)
 
Loc | Ops | Rwys | IFR | FBO | Links
Com | Nav | Svcs | Stats | Notes

City of Fort Worth
 
Area around XA99 (Flat Bush Airport)
 
Road maps at: MapQuest Bing Google
 
Aerial photo
No photo
 
Sectional chart

 
Airport distance calculator
Flying to Flat Bush Airport? Find the distance to fly.

From to XA99

Sunrise and sunset
Times for 08-Dec-2021
 Local
(UTC-6)
 Zulu
(UTC)
Morning civil twilight06:5512:55
Sunrise07:2213:22
Sunset17:2223:22
Evening civil twilight17:5023:50

Current date and time
Zulu (UTC)  08-Dec-2021 06:18:06
Local (UTC-6)  08-Dec-2021 00:18:06
 
METAR
KLUD 
7nm N 
118.22 940-927-2365
080555Z AUTO 08006KT 10SM CLR 06/02 A2999 RMK AO2 T00600017 10097 20060 401271010
KXBP 
11nm W 
080555Z AUTO 00000KT 10SM CLR 03/02 A3002 RMK AO2 T00270016 10104 20026 401471026
KAFW 
18nm SE 
080553Z 36006KT 10SM BKN300 07/02 A2999 RMK AO2 SLP158 T00670022 10122 20061 401441011 53001
TAF
KAFW 
18nm SE 
080535Z 0806/0906 07003KT P6SM BKN250 FM081100 09004KT P6SM SCT010 FM081300 10005KT 2SM BR BKN007 TEMPO 0813/0816 3/4SM BR BKN004 FM081700 15009KT P6SM SCT030
KFTW 
22nm SE 
080535Z 0806/0906 07003KT P6SM BKN250 FM081100 09004KT P6SM SCT010 FM081300 10005KT 2SM BR BKN007 TEMPO 0813/0816 3/4SM BR BKN004 FM081700 15009KT P6SM SCT030
NOTAMs
Click for the latest NOTAMs
NOTAMs are issued by the DoD/FAA and will open in a separate window not controlled by AirNav.

 

 
 

Would you like to see your business listed on this page?

 If your business provides an interesting product or service to pilots, flight crews, aircraft, or users of the Flat Bush Airport, you should consider listing it here.  To start the listing process, click on the button below
 
Add a business
 

Other Pages about Flat Bush Airport

Update a link
 
Copyright © AirNav, LLC. All rights reserved. Privacy Policy  Contact